sat.trackr.live / text

‹ back to catalog

KUIPER-00010

NORAD 63726 · 2025-088C

PAYLOAD ACTIVE UNKNOWN

§ Identity

Operator
Country
US
Launch date
2025-04-28
Launch site
AFETR
Launch vehicle
Mass (kg)
RCS (m²)

External: N2YO · Heavens-Above · Gunter

§ Orbital elements

Epoch: 2026-05-25T03:38:05.051040Z

Period
97.30 min
Inclination
51.9020°
Eccentricity
0.0000692
Mean motion
14.79935267 rev/d
Perigee alt
629.0 km
Apogee alt
630.0 km
Semi-major
7,007.7 km
B*
-1.0178e-5
RAAN
104.9892°
Arg perigee
62.3636°
Mean anomaly
297.7397°
Rev number
5,905

§ Raw data

KUIPER-000101 63726U 25088C   26145.15144735 -.00000299  00000+0 -10178-4 0  99972 63726  51.9020 104.9892 0000692  62.3636 297.7397 14.79935267 59055

JSON: /api/v1/satellites/63726 · /tle

For live sub-satellite position, see the globe view (requires WebGL).

§ Visibility from observer

Set your observer location to see the next 7 days of passes ≥ 10°. The values pass through the URL so the page stays shareable.

No JS? Fill the form by hand. The geolocation button needs JavaScript.